Year,Month,Day,Hour,Minute,Value (Times are PST for temperature in C)
2009,05,21,00,00,9.40
2009,05,21,00,01,9.40
2009,05,21,00,02,9.30
2009,05,21,00,03,9.30
2009,05,21,00,04,9.30
2009,05,21,00,05,9.20
2009,05,21,00,06,9.20
2009,05,21,00,07,9.20
2009,05,21,00,08,9.10
2009,05,21,00,09,9.10
2009,05,21,00,10,9.10
2009,05,21,00,11,9.10
2009,05,21,00,12,9.00
2009,05,21,00,13,9.00
2009,05,21,00,14,9.00
2009,05,21,00,15,9.00
2009,05,21,00,16,8.90
2009,05,21,00,17,8.90
2009,05,21,00,18,8.90
2009,05,21,00,19,8.90
2009,05,21,00,20,8.90
2009,05,21,00,21,8.90
2009,05,21,00,22,8.80
2009,05,21,00,23,8.80
2009,05,21,00,24,8.80
2009,05,21,00,25,8.80
2009,05,21,00,26,8.70
2009,05,21,00,27,8.70
2009,05,21,00,28,8.70
2009,05,21,00,29,8.70
2009,05,21,00,30,8.70
2009,05,21,00,31,8.60
2009,05,21,00,32,8.60
2009,05,21,00,33,8.60
2009,05,21,00,34,8.60
2009,05,21,00,35,8.50
2009,05,21,00,36,8.50
2009,05,21,00,37,8.50
2009,05,21,00,38,8.40
2009,05,21,00,39,8.40
2009,05,21,00,40,8.40
2009,05,21,00,41,8.40
2009,05,21,00,42,8.40
2009,05,21,00,43,8.30
2009,05,21,00,44,8.30
2009,05,21,00,45,8.30
2009,05,21,00,46,8.20
2009,05,21,00,47,8.20
2009,05,21,00,48,8.20
2009,05,21,00,49,8.20
2009,05,21,00,50,8.20
2009,05,21,00,51,8.10
2009,05,21,00,52,8.10
2009,05,21,00,53,8.10
2009,05,21,00,54,8.10
2009,05,21,00,55,8.10
2009,05,21,00,56,8.10
2009,05,21,00,57,8.10
2009,05,21,00,58,8.10
2009,05,21,00,59,8.10
2009,05,21,01,00,8.10
2009,05,21,01,01,8.00
2009,05,21,01,02,8.00
2009,05,21,01,03,8.00
2009,05,21,01,04,8.00
2009,05,21,01,05,7.90
2009,05,21,01,06,7.90
2009,05,21,01,07,7.90
2009,05,21,01,08,7.90
2009,05,21,01,09,7.80
2009,05,21,01,10,7.80
2009,05,21,01,11,7.80
2009,05,21,01,12,7.80
2009,05,21,01,13,7.80
2009,05,21,01,14,7.70
2009,05,21,01,15,7.70
2009,05,21,01,16,7.70
2009,05,21,01,17,7.70
2009,05,21,01,18,7.70
2009,05,21,01,19,7.60
2009,05,21,01,20,7.60
2009,05,21,01,21,7.60
2009,05,21,01,22,7.60
2009,05,21,01,23,7.60
2009,05,21,01,24,7.50
2009,05,21,01,25,7.50
2009,05,21,01,26,7.50
2009,05,21,01,27,7.50
2009,05,21,01,28,7.40
2009,05,21,01,29,7.40
2009,05,21,01,30,7.40
2009,05,21,01,31,7.40
2009,05,21,01,32,7.40
2009,05,21,01,33,7.30
2009,05,21,01,34,7.30
2009,05,21,01,35,7.30
2009,05,21,01,36,7.30
2009,05,21,01,37,7.30
2009,05,21,01,38,7.20
2009,05,21,01,39,7.20
2009,05,21,01,40,7.20
2009,05,21,01,41,7.20
2009,05,21,01,42,7.20
2009,05,21,01,43,7.20
2009,05,21,01,44,7.20
2009,05,21,01,45,7.20
2009,05,21,01,46,7.20
2009,05,21,01,47,7.20
2009,05,21,01,48,7.20
2009,05,21,01,49,7.20
2009,05,21,01,50,7.20
2009,05,21,01,51,7.10
2009,05,21,01,52,7.10
2009,05,21,01,53,7.10
2009,05,21,01,54,7.10
2009,05,21,01,55,7.10
2009,05,21,01,56,7.10
2009,05,21,01,57,7.10
2009,05,21,01,58,7.00
2009,05,21,01,59,7.00
2009,05,21,02,00,7.00
2009,05,21,02,01,6.90
2009,05,21,02,02,6.90
2009,05,21,02,03,6.90
2009,05,21,02,04,6.90
2009,05,21,02,05,6.80
2009,05,21,02,06,6.80
2009,05,21,02,07,6.80
2009,05,21,02,08,6.80
2009,05,21,02,09,6.80
2009,05,21,02,10,6.80
2009,05,21,02,11,6.80
2009,05,21,02,12,6.80
2009,05,21,02,13,6.80
2009,05,21,02,14,6.80
2009,05,21,02,15,6.80
2009,05,21,02,16,6.80
2009,05,21,02,17,6.80
2009,05,21,02,18,6.80
2009,05,21,02,19,6.80
2009,05,21,02,20,6.70
2009,05,21,02,21,6.70
2009,05,21,02,22,6.70
2009,05,21,02,23,6.70
2009,05,21,02,24,6.70
2009,05,21,02,25,6.70
2009,05,21,02,26,6.60
2009,05,21,02,27,6.60
2009,05,21,02,28,6.60
2009,05,21,02,29,6.60
2009,05,21,02,30,6.60
2009,05,21,02,31,6.60
2009,05,21,02,32,6.60
2009,05,21,02,33,6.60
2009,05,21,02,34,6.60
2009,05,21,02,35,6.50
2009,05,21,02,36,6.50
2009,05,21,02,37,6.50
2009,05,21,02,38,6.50
2009,05,21,02,39,6.50
2009,05,21,02,40,6.50
2009,05,21,02,41,6.50
2009,05,21,02,42,6.40
2009,05,21,02,43,6.40
2009,05,21,02,44,6.40
2009,05,21,02,45,6.40
2009,05,21,02,46,6.40
2009,05,21,02,47,6.40
2009,05,21,02,48,6.40
2009,05,21,02,49,6.40
2009,05,21,02,50,6.40
2009,05,21,02,51,6.40
2009,05,21,02,52,6.30
2009,05,21,02,53,6.30
2009,05,21,02,54,6.30
2009,05,21,02,55,6.30
2009,05,21,02,56,6.30
2009,05,21,02,57,6.30
2009,05,21,02,58,6.30
2009,05,21,02,59,6.30
2009,05,21,03,00,6.30
2009,05,21,03,01,6.20
2009,05,21,03,02,6.20
2009,05,21,03,03,6.20
2009,05,21,03,04,6.20
2009,05,21,03,05,6.20
2009,05,21,03,06,6.20
2009,05,21,03,07,6.10
2009,05,21,03,08,6.10
2009,05,21,03,09,6.10
2009,05,21,03,10,6.10
2009,05,21,03,11,6.10
2009,05,21,03,12,6.10
2009,05,21,03,13,6.10
2009,05,21,03,14,6.00
2009,05,21,03,15,6.00
2009,05,21,03,16,6.00
2009,05,21,03,17,5.90
2009,05,21,03,18,5.90
2009,05,21,03,19,5.90
2009,05,21,03,20,5.90
2009,05,21,03,21,5.80
2009,05,21,03,22,5.80
2009,05,21,03,23,5.80
2009,05,21,03,24,5.80
2009,05,21,03,25,5.80
2009,05,21,03,26,5.80
2009,05,21,03,27,5.70
2009,05,21,03,28,5.70
2009,05,21,03,29,5.70
2009,05,21,03,30,5.70
2009,05,21,03,31,5.70
2009,05,21,03,32,5.70
2009,05,21,03,33,5.60
2009,05,21,03,34,5.60
2009,05,21,03,35,5.60
2009,05,21,03,36,5.60
2009,05,21,03,37,5.60
2009,05,21,03,38,5.60
2009,05,21,03,39,5.60
2009,05,21,03,40,5.50
2009,05,21,03,41,5.50
2009,05,21,03,42,5.50
2009,05,21,03,43,5.40
2009,05,21,03,44,5.40
2009,05,21,03,45,5.40
2009,05,21,03,46,5.40
2009,05,21,03,47,5.40
2009,05,21,03,48,5.40
2009,05,21,03,49,5.40
2009,05,21,03,50,5.30
2009,05,21,03,51,5.30
2009,05,21,03,52,5.30
2009,05,21,03,53,5.30
2009,05,21,03,54,5.30
2009,05,21,03,55,5.30
2009,05,21,03,56,5.30
2009,05,21,03,57,5.20
2009,05,21,03,58,5.20
2009,05,21,03,59,5.20
2009,05,21,04,00,5.20
2009,05,21,04,01,5.20
2009,05,21,04,02,5.20
2009,05,21,04,03,5.20
2009,05,21,04,04,5.20
2009,05,21,04,05,5.20
2009,05,21,04,06,5.20
2009,05,21,04,07,5.20
2009,05,21,04,08,5.20
2009,05,21,04,09,5.20
2009,05,21,04,10,5.20
2009,05,21,04,11,5.20
2009,05,21,04,12,5.20
2009,05,21,04,13,5.10
2009,05,21,04,14,5.10
2009,05,21,04,15,5.10
2009,05,21,04,16,5.10
2009,05,21,04,17,5.10
2009,05,21,04,18,5.10
2009,05,21,04,19,5.10
2009,05,21,04,20,5.10
2009,05,21,04,21,5.10
2009,05,21,04,22,5.10
2009,05,21,04,23,5.10
2009,05,21,04,24,5.10
2009,05,21,04,25,5.10
2009,05,21,04,26,5.10
2009,05,21,04,27,5.10
2009,05,21,04,28,5.10
2009,05,21,04,29,5.10
2009,05,21,04,30,5.10
2009,05,21,04,31,5.10
2009,05,21,04,32,5.10
2009,05,21,04,33,5.10
2009,05,21,04,34,5.10
2009,05,21,04,35,5.10
2009,05,21,04,36,5.10
2009,05,21,04,37,5.10
2009,05,21,04,38,5.10
2009,05,21,04,39,5.10
2009,05,21,04,40,5.10
2009,05,21,04,41,5.10
2009,05,21,04,42,5.10
2009,05,21,04,43,5.10
2009,05,21,04,44,5.10
2009,05,21,04,45,5.10
2009,05,21,04,46,5.10
2009,05,21,04,47,5.10
2009,05,21,04,48,5.10
2009,05,21,04,49,5.00
2009,05,21,04,50,5.00
2009,05,21,04,51,5.00
2009,05,21,04,52,5.00
2009,05,21,04,53,5.00
2009,05,21,04,54,5.00
2009,05,21,04,55,4.90
2009,05,21,04,56,4.90
2009,05,21,04,57,4.90
2009,05,21,04,58,4.90
2009,05,21,04,59,4.90
2009,05,21,05,00,4.90
2009,05,21,05,01,4.90
2009,05,21,05,02,4.90
2009,05,21,05,03,4.90
2009,05,21,05,04,4.90
2009,05,21,05,05,4.90
2009,05,21,05,06,4.90
2009,05,21,05,07,4.90
2009,05,21,05,08,4.90
2009,05,21,05,09,4.90
2009,05,21,05,10,4.90
2009,05,21,05,11,4.90
2009,05,21,05,12,4.80
2009,05,21,05,13,4.80
2009,05,21,05,14,4.80
2009,05,21,05,15,4.80
2009,05,21,05,16,4.80
2009,05,21,05,17,4.80
2009,05,21,05,18,4.80
2009,05,21,05,19,4.80
2009,05,21,05,20,4.80
2009,05,21,05,21,4.80
2009,05,21,05,22,4.80
2009,05,21,05,23,4.80
2009,05,21,05,24,4.80
2009,05,21,05,25,4.70
2009,05,21,05,26,4.70
2009,05,21,05,27,4.70
2009,05,21,05,28,4.70
2009,05,21,05,29,4.70
2009,05,21,05,30,4.70
2009,05,21,05,31,4.70
2009,05,21,05,32,4.70
2009,05,21,05,33,4.70
2009,05,21,05,34,4.70
2009,05,21,05,35,4.70
2009,05,21,05,36,4.70
2009,05,21,05,37,4.70
2009,05,21,05,38,4.70
2009,05,21,05,39,4.70
2009,05,21,05,40,4.70
2009,05,21,05,41,4.70
2009,05,21,05,42,4.70
2009,05,21,05,43,4.70
2009,05,21,05,44,4.70
2009,05,21,05,45,4.70
2009,05,21,05,46,4.70
2009,05,21,05,47,4.70
2009,05,21,05,48,4.70
2009,05,21,05,49,4.70
2009,05,21,05,50,4.70
2009,05,21,05,51,4.70
2009,05,21,05,52,4.70
2009,05,21,05,53,4.70
2009,05,21,05,54,4.70
2009,05,21,05,55,4.70
2009,05,21,05,56,4.70
2009,05,21,05,57,4.70
2009,05,21,05,58,4.70
2009,05,21,05,59,4.70
2009,05,21,06,00,4.70
2009,05,21,06,01,4.70
2009,05,21,06,02,4.70
2009,05,21,06,03,4.70
2009,05,21,06,04,4.70
2009,05,21,06,05,4.70
2009,05,21,06,06,4.70
2009,05,21,06,07,4.70
2009,05,21,06,08,4.70
2009,05,21,06,09,4.70
2009,05,21,06,10,4.70
2009,05,21,06,11,4.70
2009,05,21,06,12,4.70
2009,05,21,06,13,4.70
2009,05,21,06,14,4.70
2009,05,21,06,15,4.70
2009,05,21,06,16,4.70
2009,05,21,06,17,4.80
2009,05,21,06,18,4.80
2009,05,21,06,19,4.80
2009,05,21,06,20,4.80
2009,05,21,06,21,4.80
2009,05,21,06,22,4.80
2009,05,21,06,23,4.90
2009,05,21,06,24,4.90
2009,05,21,06,25,4.90
2009,05,21,06,26,5.00
2009,05,21,06,27,5.00
2009,05,21,06,28,5.00
2009,05,21,06,29,5.10
2009,05,21,06,30,5.10
2009,05,21,06,31,5.10
2009,05,21,06,32,5.20
2009,05,21,06,33,5.20
2009,05,21,06,34,5.20
2009,05,21,06,35,5.30
2009,05,21,06,36,5.30
2009,05,21,06,37,5.40
2009,05,21,06,38,5.40
2009,05,21,06,39,5.40
2009,05,21,06,40,5.50
2009,05,21,06,41,5.50
2009,05,21,06,42,5.60
2009,05,21,06,43,5.60
2009,05,21,06,44,5.60
2009,05,21,06,45,5.70
2009,05,21,06,46,5.70
2009,05,21,06,47,5.80
2009,05,21,06,48,5.80
2009,05,21,06,49,5.90
2009,05,21,06,50,5.90
2009,05,21,06,51,6.00
2009,05,21,06,52,6.00
2009,05,21,06,53,6.10
2009,05,21,06,54,6.20
2009,05,21,06,55,6.20
2009,05,21,06,56,6.30
2009,05,21,06,57,6.30
2009,05,21,06,58,6.40
2009,05,21,06,59,6.50
2009,05,21,07,00,6.50
2009,05,21,07,01,6.60
2009,05,21,07,02,6.70
2009,05,21,07,03,6.80
2009,05,21,07,04,6.80
2009,05,21,07,05,6.90
2009,05,21,07,06,7.00
2009,05,21,07,07,7.00
2009,05,21,07,08,7.10
2009,05,21,07,09,7.20
2009,05,21,07,10,7.20
2009,05,21,07,11,7.30
2009,05,21,07,12,7.40
2009,05,21,07,13,7.40
2009,05,21,07,14,7.50
2009,05,21,07,15,7.50
2009,05,21,07,16,7.60
2009,05,21,07,17,7.70
2009,05,21,07,18,7.80
2009,05,21,07,19,7.80
2009,05,21,07,20,7.90
2009,05,21,07,21,8.00
2009,05,21,07,22,8.10
2009,05,21,07,23,8.10
2009,05,21,07,24,8.20
2009,05,21,07,25,8.20
2009,05,21,07,26,8.30
2009,05,21,07,27,8.30
2009,05,21,07,28,8.30
2009,05,21,07,29,8.40
2009,05,21,07,30,8.50
2009,05,21,07,31,8.50
2009,05,21,07,32,8.60
2009,05,21,07,33,8.70
2009,05,21,07,34,8.80
2009,05,21,07,35,8.90
2009,05,21,07,36,8.90
2009,05,21,07,37,9.00
2009,05,21,07,38,9.00
2009,05,21,07,39,9.10
2009,05,21,07,40,9.10
2009,05,21,07,41,9.20
2009,05,21,07,42,9.20
2009,05,21,07,43,9.30
2009,05,21,07,44,9.40
2009,05,21,07,45,9.60
2009,05,21,07,46,9.60
2009,05,21,07,47,9.70
2009,05,21,07,48,9.90
2009,05,21,07,49,10.00
2009,05,21,07,50,10.10
2009,05,21,07,51,10.20
2009,05,21,07,52,10.30
2009,05,21,07,53,10.40
2009,05,21,07,54,10.60
2009,05,21,07,55,10.60
2009,05,21,07,56,10.70
2009,05,21,07,57,10.80
2009,05,21,07,58,10.80
2009,05,21,07,59,10.80
2009,05,21,08,00,10.90
2009,05,21,08,01,10.90
2009,05,21,08,02,10.90
2009,05,21,08,03,10.90
2009,05,21,08,04,11.00
2009,05,21,08,05,11.00
2009,05,21,08,06,11.10
2009,05,21,08,07,11.10
2009,05,21,08,08,11.20
2009,05,21,08,09,11.30
2009,05,21,08,10,11.30
2009,05,21,08,11,11.40
2009,05,21,08,12,11.50
2009,05,21,08,13,11.50
2009,05,21,08,14,11.50
2009,05,21,08,15,11.60
2009,05,21,08,16,11.60
2009,05,21,08,17,11.60
2009,05,21,08,18,11.70
2009,05,21,08,19,11.70
2009,05,21,08,20,11.70
2009,05,21,08,21,11.70
2009,05,21,08,22,11.80
2009,05,21,08,23,11.80
2009,05,21,08,24,11.80
2009,05,21,08,25,11.80
2009,05,21,08,26,11.80
2009,05,21,08,27,11.70
2009,05,21,08,28,11.70
2009,05,21,08,29,11.70
2009,05,21,08,30,11.80
2009,05,21,08,31,11.80
2009,05,21,08,32,11.80
2009,05,21,08,33,11.90
2009,05,21,08,34,11.90
2009,05,21,08,35,12.00
2009,05,21,08,36,12.00
2009,05,21,08,37,12.00
2009,05,21,08,38,11.90
2009,05,21,08,39,11.90
2009,05,21,08,40,11.90
2009,05,21,08,41,11.80
2009,05,21,08,42,11.80
2009,05,21,08,43,11.80
2009,05,21,08,44,11.70
2009,05,21,08,45,11.60
2009,05,21,08,46,11.60
2009,05,21,08,47,11.50
2009,05,21,08,48,11.40
2009,05,21,08,49,11.40
2009,05,21,08,50,11.30
2009,05,21,08,51,11.30
2009,05,21,08,52,11.30
2009,05,21,08,53,11.30
2009,05,21,08,54,11.30
2009,05,21,08,55,11.30
2009,05,21,08,56,11.30
2009,05,21,08,57,11.30
2009,05,21,08,58,11.30
2009,05,21,08,59,11.30
2009,05,21,09,00,11.30
2009,05,21,09,01,11.30
2009,05,21,09,02,11.30
2009,05,21,09,03,11.30
2009,05,21,09,04,11.40
2009,05,21,09,05,11.40
2009,05,21,09,06,11.40
2009,05,21,09,07,11.40
2009,05,21,09,08,11.40
2009,05,21,09,09,11.40
2009,05,21,09,10,11.40
2009,05,21,09,11,11.40
2009,05,21,09,12,11.40
2009,05,21,09,13,11.40
2009,05,21,09,14,11.50
2009,05,21,09,15,11.50
2009,05,21,09,16,11.50
2009,05,21,09,17,11.50
2009,05,21,09,18,11.50
2009,05,21,09,19,11.50
2009,05,21,09,20,11.60
2009,05,21,09,21,11.60
2009,05,21,09,22,11.60
2009,05,21,09,23,11.60
2009,05,21,09,24,11.70
2009,05,21,09,25,11.70
2009,05,21,09,26,11.80
2009,05,21,09,27,11.80
2009,05,21,09,28,11.80
2009,05,21,09,29,11.90
2009,05,21,09,30,11.80
2009,05,21,09,31,11.90
2009,05,21,09,32,12.00
2009,05,21,09,33,12.00
2009,05,21,09,34,12.10
2009,05,21,09,35,12.20
2009,05,21,09,36,12.30
2009,05,21,09,37,12.40
2009,05,21,09,38,12.50
2009,05,21,09,39,12.60
2009,05,21,09,40,12.80
2009,05,21,09,41,12.80
2009,05,21,09,42,12.80
2009,05,21,09,43,12.90
2009,05,21,09,44,12.90
2009,05,21,09,45,12.90
2009,05,21,09,46,12.90
2009,05,21,09,47,12.90
2009,05,21,09,48,13.00
2009,05,21,09,49,13.00
2009,05,21,09,50,13.10
2009,05,21,09,51,13.00
2009,05,21,09,52,12.90
2009,05,21,09,53,12.90
2009,05,21,09,54,12.90
2009,05,21,09,55,12.90
2009,05,21,09,56,12.90
2009,05,21,09,57,12.90
2009,05,21,09,58,12.80
2009,05,21,09,59,12.80
2009,05,21,10,00,12.70
2009,05,21,10,01,12.60
2009,05,21,10,02,12.60
2009,05,21,10,03,12.60
2009,05,21,10,04,12.70
2009,05,21,10,05,12.70
2009,05,21,10,06,12.80
2009,05,21,10,07,12.90
2009,05,21,10,08,13.00
2009,05,21,10,09,13.00
2009,05,21,10,10,13.00
2009,05,21,10,11,12.90
2009,05,21,10,12,12.80
2009,05,21,10,13,12.80
2009,05,21,10,14,12.70
2009,05,21,10,15,12.70
2009,05,21,10,16,12.70
2009,05,21,10,17,12.60
2009,05,21,10,18,12.60
2009,05,21,10,19,12.60
2009,05,21,10,20,12.60
2009,05,21,10,21,12.60
2009,05,21,10,22,12.60
2009,05,21,10,23,12.50
2009,05,21,10,24,12.50
2009,05,21,10,25,12.60
2009,05,21,10,26,12.60
2009,05,21,10,27,12.70
2009,05,21,10,28,12.80
2009,05,21,10,29,12.90
2009,05,21,10,30,13.10
2009,05,21,10,31,13.20
2009,05,21,10,32,13.20
2009,05,21,10,33,13.10
2009,05,21,10,34,13.00
2009,05,21,10,35,13.00
2009,05,21,10,36,12.80
2009,05,21,10,37,12.70
2009,05,21,10,38,12.60
2009,05,21,10,39,12.40
2009,05,21,10,40,12.30
2009,05,21,10,41,12.20
2009,05,21,10,42,12.20
2009,05,21,10,43,12.20
2009,05,21,10,44,12.10
2009,05,21,10,45,12.00
2009,05,21,10,46,12.00
2009,05,21,10,47,12.00
2009,05,21,10,48,12.20
2009,05,21,10,49,12.20
2009,05,21,10,50,12.30
2009,05,21,10,51,12.30
2009,05,21,10,52,12.30
2009,05,21,10,53,12.30
2009,05,21,10,54,12.30
2009,05,21,10,55,12.30
2009,05,21,10,56,12.30
2009,05,21,10,57,12.30
2009,05,21,10,58,12.30
2009,05,21,10,59,12.30
2009,05,21,11,00,12.30
2009,05,21,11,01,12.30
2009,05,21,11,02,12.30
2009,05,21,11,03,12.30
2009,05,21,11,04,12.40
2009,05,21,11,05,12.40
2009,05,21,11,06,12.50
2009,05,21,11,07,12.60
2009,05,21,11,08,12.70
2009,05,21,11,09,12.80
2009,05,21,11,10,12.80
2009,05,21,11,11,12.90
2009,05,21,11,12,12.80
2009,05,21,11,13,12.80
2009,05,21,11,14,12.90
2009,05,21,11,15,12.90
2009,05,21,11,16,12.90
2009,05,21,11,17,12.90
2009,05,21,11,18,13.00
2009,05,21,11,19,13.00
2009,05,21,11,20,12.90
2009,05,21,11,21,12.90
2009,05,21,11,22,13.00
2009,05,21,11,23,12.90
2009,05,21,11,24,12.90
2009,05,21,11,25,12.80
2009,05,21,11,26,12.80
2009,05,21,11,27,12.80
2009,05,21,11,28,12.70
2009,05,21,11,29,12.80
2009,05,21,11,30,12.80
2009,05,21,11,31,12.90
2009,05,21,11,32,13.00
2009,05,21,11,33,13.20
2009,05,21,11,34,13.20
2009,05,21,11,35,13.30
2009,05,21,11,36,13.30
2009,05,21,11,37,13.30
2009,05,21,11,38,13.30
2009,05,21,11,39,13.20
2009,05,21,11,40,13.10
2009,05,21,11,41,13.10
2009,05,21,11,42,13.10
2009,05,21,11,43,13.10
2009,05,21,11,44,13.00
2009,05,21,11,45,13.00
2009,05,21,11,46,13.10
2009,05,21,11,47,13.00
2009,05,21,11,48,13.00
2009,05,21,11,49,12.90
2009,05,21,11,50,12.90
2009,05,21,11,51,12.90
2009,05,21,11,52,12.90
2009,05,21,11,53,12.90
2009,05,21,11,54,13.00
2009,05,21,11,55,13.00
2009,05,21,11,56,13.00
2009,05,21,11,57,13.00
2009,05,21,11,58,13.10
2009,05,21,11,59,13.10
2009,05,21,12,00,13.00
2009,05,21,12,01,12.90
2009,05,21,12,02,12.80
2009,05,21,12,03,12.90
2009,05,21,12,04,12.90
2009,05,21,12,05,12.90
2009,05,21,12,06,12.80
2009,05,21,12,07,12.80
2009,05,21,12,08,12.80
2009,05,21,12,09,12.80
2009,05,21,12,10,12.90
2009,05,21,12,11,13.10
2009,05,21,12,12,13.20
2009,05,21,12,13,13.20
2009,05,21,12,14,13.30
2009,05,21,12,15,13.40
2009,05,21,12,16,13.40
2009,05,21,12,17,13.40
2009,05,21,12,18,13.40
2009,05,21,12,19,13.30
2009,05,21,12,20,13.20
2009,05,21,12,21,13.00
2009,05,21,12,22,13.00
2009,05,21,12,23,12.90
2009,05,21,12,24,13.00
2009,05,21,12,25,13.00
2009,05,21,12,26,13.20
2009,05,21,12,27,13.20
2009,05,21,12,28,13.30
2009,05,21,12,29,13.30
2009,05,21,12,30,13.30
2009,05,21,12,31,13.40
2009,05,21,12,32,13.40
2009,05,21,12,33,13.40
2009,05,21,12,34,13.40
2009,05,21,12,35,13.40
2009,05,21,12,36,13.40
2009,05,21,12,37,13.40
2009,05,21,12,38,13.30
2009,05,21,12,39,13.40
2009,05,21,12,40,13.40
2009,05,21,12,41,13.40
2009,05,21,12,42,13.30
2009,05,21,12,43,13.40
2009,05,21,12,44,13.40
2009,05,21,12,45,13.30
2009,05,21,12,46,13.30
2009,05,21,12,47,13.40
2009,05,21,12,48,13.40
2009,05,21,12,49,13.40
2009,05,21,12,50,13.50
2009,05,21,12,51,13.60
2009,05,21,12,52,13.70
2009,05,21,12,53,13.70
2009,05,21,12,54,13.80
2009,05,21,12,55,13.90
2009,05,21,12,56,13.90
2009,05,21,12,57,13.90
2009,05,21,12,58,14.00
2009,05,21,12,59,14.00
2009,05,21,13,00,14.10
2009,05,21,13,01,14.20
2009,05,21,13,02,14.20
2009,05,21,13,03,14.20
2009,05,21,13,04,14.20
2009,05,21,13,05,14.20
2009,05,21,13,06,14.00
2009,05,21,13,07,13.90
2009,05,21,13,08,13.80
2009,05,21,13,09,13.70
2009,05,21,13,10,13.60
2009,05,21,13,11,13.70
2009,05,21,13,12,13.70
2009,05,21,13,13,13.80
2009,05,21,13,14,13.70
2009,05,21,13,15,13.50
2009,05,21,13,16,13.40
2009,05,21,13,17,13.40
2009,05,21,13,18,13.40
2009,05,21,13,19,13.50
2009,05,21,13,20,13.50
2009,05,21,13,21,13.70
2009,05,21,13,22,13.70
2009,05,21,13,23,13.80
2009,05,21,13,24,13.90
2009,05,21,13,25,13.90
2009,05,21,13,26,13.90
2009,05,21,13,27,13.90
2009,05,21,13,28,13.90
2009,05,21,13,29,13.80
2009,05,21,13,30,13.80
2009,05,21,13,31,13.80
2009,05,21,13,32,13.80
2009,05,21,13,33,13.80
2009,05,21,13,34,13.90
2009,05,21,13,35,14.00
2009,05,21,13,36,14.10
2009,05,21,13,37,14.30
2009,05,21,13,38,14.30
2009,05,21,13,39,14.30
2009,05,21,13,40,14.40
2009,05,21,13,41,14.40
2009,05,21,13,42,14.50
2009,05,21,13,43,14.50
2009,05,21,13,44,14.50
2009,05,21,13,45,14.50
2009,05,21,13,46,14.50
2009,05,21,13,47,14.40
2009,05,21,13,48,14.30
2009,05,21,13,49,14.20
2009,05,21,13,50,14.20
2009,05,21,13,51,14.20
2009,05,21,13,52,14.20
2009,05,21,13,53,14.20
2009,05,21,13,54,14.30
2009,05,21,13,55,14.30
2009,05,21,13,56,14.40
2009,05,21,13,57,14.40
2009,05,21,13,58,14.40
2009,05,21,13,59,14.30
2009,05,21,14,00,14.30
2009,05,21,14,01,14.20
2009,05,21,14,02,14.20
2009,05,21,14,03,14.20
2009,05,21,14,04,14.20
2009,05,21,14,05,14.20
2009,05,21,14,06,14.20
2009,05,21,14,07,14.20
2009,05,21,14,08,14.20
2009,05,21,14,09,14.20
2009,05,21,14,10,14.10
2009,05,21,14,11,13.90
2009,05,21,14,12,13.80
2009,05,21,14,13,13.70
2009,05,21,14,14,13.60
2009,05,21,14,15,13.50
2009,05,21,14,16,13.50
2009,05,21,14,17,13.60
2009,05,21,14,18,13.80
2009,05,21,14,19,14.00
2009,05,21,14,20,14.10
2009,05,21,14,21,14.20
2009,05,21,14,22,14.20
2009,05,21,14,23,14.10
2009,05,21,14,24,13.90
2009,05,21,14,25,13.90
2009,05,21,14,26,13.80
2009,05,21,14,27,13.80
2009,05,21,14,28,13.70
2009,05,21,14,29,13.60
2009,05,21,14,30,13.50
2009,05,21,14,31,13.50
2009,05,21,14,32,13.50
2009,05,21,14,33,13.60
2009,05,21,14,34,13.70
2009,05,21,14,35,13.80
2009,05,21,14,36,13.90
2009,05,21,14,37,14.00
2009,05,21,14,38,14.00
2009,05,21,14,39,14.10
2009,05,21,14,40,14.10
2009,05,21,14,41,14.00
2009,05,21,14,42,14.00
2009,05,21,14,43,14.00
2009,05,21,14,44,14.10
2009,05,21,14,45,14.30
2009,05,21,14,46,14.30
2009,05,21,14,47,14.40
2009,05,21,14,48,14.40
2009,05,21,14,49,14.20
2009,05,21,14,50,14.20
2009,05,21,14,51,14.20
2009,05,21,14,52,14.30
2009,05,21,14,53,14.30
2009,05,21,14,54,14.30
2009,05,21,14,55,14.30
2009,05,21,14,56,14.40
2009,05,21,14,57,14.40
2009,05,21,14,58,14.40
2009,05,21,14,59,14.30
2009,05,21,15,00,14.30
2009,05,21,15,01,14.40
2009,05,21,15,02,14.50
2009,05,21,15,03,14.60
2009,05,21,15,04,14.70
2009,05,21,15,05,14.70
2009,05,21,15,06,14.60
2009,05,21,15,07,14.50
2009,05,21,15,08,14.40
2009,05,21,15,09,14.50
2009,05,21,15,10,14.60
2009,05,21,15,11,14.70
2009,05,21,15,12,14.80
2009,05,21,15,13,15.00
2009,05,21,15,14,15.00
2009,05,21,15,15,15.00
2009,05,21,15,16,15.10
2009,05,21,15,17,15.00
2009,05,21,15,18,15.00
2009,05,21,15,19,15.00
2009,05,21,15,20,15.00
2009,05,21,15,21,15.20
2009,05,21,15,22,15.30
2009,05,21,15,23,15.30
2009,05,21,15,24,15.40
2009,05,21,15,25,15.40
2009,05,21,15,26,15.40
2009,05,21,15,27,15.40
2009,05,21,15,28,15.30
2009,05,21,15,29,15.20
2009,05,21,15,30,15.20
2009,05,21,15,31,15.30
2009,05,21,15,32,15.30
2009,05,21,15,33,15.30
2009,05,21,15,34,15.20
2009,05,21,15,35,15.10
2009,05,21,15,36,15.00
2009,05,21,15,37,15.00
2009,05,21,15,38,15.00
2009,05,21,15,39,15.20
2009,05,21,15,40,15.30
2009,05,21,15,41,15.40
2009,05,21,15,42,15.50
2009,05,21,15,43,15.60
2009,05,21,15,44,15.70
2009,05,21,15,45,15.80
2009,05,21,15,46,15.90
2009,05,21,15,47,16.00
2009,05,21,15,48,16.10
2009,05,21,15,49,16.20
2009,05,21,15,50,16.20
2009,05,21,15,51,16.10
2009,05,21,15,52,16.10
2009,05,21,15,53,16.00
2009,05,21,15,54,15.90
2009,05,21,15,55,15.80
2009,05,21,15,56,15.70
2009,05,21,15,57,15.60
2009,05,21,15,58,15.60
2009,05,21,15,59,15.60
2009,05,21,16,00,15.60
2009,05,21,16,01,15.50
2009,05,21,16,02,15.40
2009,05,21,16,03,15.30
2009,05,21,16,04,15.30
2009,05,21,16,05,15.30
2009,05,21,16,06,15.30
2009,05,21,16,07,15.30
2009,05,21,16,08,15.30
2009,05,21,16,09,15.40
2009,05,21,16,10,15.50
2009,05,21,16,11,15.60
2009,05,21,16,12,15.70
2009,05,21,16,13,15.80
2009,05,21,16,14,15.80
2009,05,21,16,15,15.80
2009,05,21,16,16,15.80
2009,05,21,16,17,15.70
2009,05,21,16,18,15.70
2009,05,21,16,19,15.70
2009,05,21,16,20,15.60
2009,05,21,16,21,15.60
2009,05,21,16,22,15.60
2009,05,21,16,23,15.60
2009,05,21,16,24,15.60
2009,05,21,16,25,15.70
2009,05,21,16,26,15.70
2009,05,21,16,27,15.70
2009,05,21,16,28,15.70
2009,05,21,16,29,15.70
2009,05,21,16,30,15.70
2009,05,21,16,31,15.80
2009,05,21,16,32,15.80
2009,05,21,16,33,15.80
2009,05,21,16,34,15.80
2009,05,21,16,35,15.90
2009,05,21,16,36,16.00
2009,05,21,16,37,16.10
2009,05,21,16,38,16.00
2009,05,21,16,39,15.90
2009,05,21,16,40,15.70
2009,05,21,16,41,15.70
2009,05,21,16,42,15.70
2009,05,21,16,43,15.70
2009,05,21,16,44,15.70
2009,05,21,16,45,15.70
2009,05,21,16,46,15.80
2009,05,21,16,47,15.80
2009,05,21,16,48,15.90
2009,05,21,16,49,15.90
2009,05,21,16,50,15.90
2009,05,21,16,51,15.80
2009,05,21,16,52,15.70
2009,05,21,16,53,15.60
2009,05,21,16,54,15.60
2009,05,21,16,55,15.60
2009,05,21,16,56,15.60
2009,05,21,16,57,15.60
2009,05,21,16,58,15.60
2009,05,21,16,59,15.60
2009,05,21,17,00,15.70
2009,05,21,17,01,15.70
2009,05,21,17,02,15.60
2009,05,21,17,03,15.60
2009,05,21,17,04,15.60
2009,05,21,17,05,15.60
2009,05,21,17,06,15.70
2009,05,21,17,07,15.70
2009,05,21,17,08,15.60
2009,05,21,17,09,15.60
2009,05,21,17,10,15.60
2009,05,21,17,11,15.60
2009,05,21,17,12,15.60
2009,05,21,17,13,15.60
2009,05,21,17,14,15.60
2009,05,21,17,15,15.70
2009,05,21,17,16,15.70
2009,05,21,17,17,15.60
2009,05,21,17,18,15.60
2009,05,21,17,19,15.50
2009,05,21,17,20,15.50
2009,05,21,17,21,15.40
2009,05,21,17,22,15.30
2009,05,21,17,23,15.20
2009,05,21,17,24,15.20
2009,05,21,17,25,15.30
2009,05,21,17,26,15.30
2009,05,21,17,27,15.40
2009,05,21,17,28,15.50
2009,05,21,17,29,15.60
2009,05,21,17,30,15.60
2009,05,21,17,31,15.50
2009,05,21,17,32,15.50
2009,05,21,17,33,15.50
2009,05,21,17,34,15.50
2009,05,21,17,35,15.60
2009,05,21,17,36,15.70
2009,05,21,17,37,15.70
2009,05,21,17,38,15.70
2009,05,21,17,39,15.60